Content
SEND FEEDBACK

Daily
Averages
Monthly
Summary
United Kingdom

CALSHOT, ENGLAND


Home > Europe > United Kingdom > England
Elevation: 171 feet     Latitude: 50 48N     Longitude: 001 18W

WEATHER
 
SELECT A DAY
Number of Records: 192,906;   Date Range: 7/1/96 - 7/27/14
 
SHARE

PRINT THIS DATA

[ ← Previous Day ]
WEATHER ALMANAC - SEPTEMBER 18, 2013
[ Next Day → ]
[ °C ]   °F
Weather ElementAverageHighLow
Temperature54.9 °F59 °F (2:20 pm)46.4 °F (10:20 pm)
Dewpoint44.2 °F51.8 °F (6:20 am)39.2 °F (6:20 pm)
Humidity68.9 %94 % (6:20 am)51 % (2:50 pm)
Barometer29.72 in29.89 in (9:20 pm)29.53 in (6:20 am)
Wind Speed7 mph11.5 mph (2:20 pm)
Weather ElementAverage
Visibility6.1 mi
Wind DirectionWNW (282.4 °)

Weather ElementTotal
Precipitation---
Heating Degree Days12.3 (Base 65)
Growing Degree Days2.7 (Base 50)
Averaged from 33 records on September 18, 2013
WEATHER CONDITIONS BREAKOUT
WIND DIRECTION BREAKOUT
WEATHER BY HOUR - SEPTEMBER 18, 2013
[ °C ]   °F
Local TimeTemperatureDewpointHumidityBarometerVisibilityWind DirectionWind SpeedGust SpeedPrecipitationEventsConditions
6:20 AM53.6 °F51.8 °F94 %29.53 in5.0 miWNW (290°)3.5 mphRainLight Rain
6:50 AM53.6 °F51.8 °F94 %29.53 in5.0 miNW (310°)4.6 mphRainLight Rain
7:20 AM51.8 °F50.0 °F94 %29.56 in5.6 miNorth (10°)5.8 mphMostly Cloudy
7:50 AM51.8 °F50.0 °F94 %29.56 in6.2 miNorth (360°)4.6 mphMostly Cloudy
8:20 AM51.8 °F50.0 °F94 %29.59 in6.2 miNorth (360°)5.8 mphMostly Cloudy
8:50 AM51.8 °F50.0 °F94 %29.59 in6.2 miNorth (350°)5.8 mphMostly Cloudy
9:20 AM53.6 °F50.0 °F88 %29.62 in6.2 miNorth (10°)4.6 mphMostly Cloudy
9:50 AM53.6 °F50.0 °F88 %29.62 in6.2 miNorth (360°)3.5 mphMostly Cloudy
10:20 AM55.4 °F48.2 °F77 %29.65 in6.2 miNNW (330°)4.6 mphScattered Clouds
10:50 AM55.4 °F46.4 °F72 %29.65 in6.2 miNW (320°)6.9 mphScattered Clouds
11:20 AM55.4 °F46.4 °F72 %29.65 in6.2 miNW (320°)6.9 mphScattered Clouds
11:50 AM57.2 °F46.4 °F67 %29.68 in6.2 miNW (320°)9.2 mphScattered Clouds
12:20 PM57.2 °F46.4 °F67 %29.68 in6.2 miNW (320°)9.2 mphScattered Clouds
12:50 PM57.2 °F46.4 °F67 %29.68 in6.2 miWest (280°)6.9 mphScattered Clouds
1:20 PM57.2 °F44.6 °F63 %29.71 in6.2 miNW (310°)8.1 mphScattered Clouds
1:50 PM57.2 °F44.6 °F63 %29.71 in6.2 miNW (320°)10.4 mphScattered Clouds
2:20 PM59.0 °F44.6 °F59 %29.71 in6.2 miNNW (330°)11.5 mphScattered Clouds
2:50 PM59.0 °F41.0 °F51 %29.74 in6.2 miNW (310°)11.5 mphScattered Clouds
3:20 PM59.0 °F41.0 °F51 %29.74 in6.2 miNW (320°)9.2 mphPartly Cloudy
3:50 PM59.0 °F41.0 °F51 %29.74 in6.2 miNW (310°)11.5 mphPartly Cloudy
4:20 PM59.0 °F41.0 °F51 %29.74 in6.2 miWNW (300°)9.2 mphPartly Cloudy
4:50 PM59.0 °F41.0 °F51 %29.77 in6.2 miWNW (300°)10.4 mphPartly Cloudy
5:20 PM57.2 °F41.0 °F55 %29.77 in6.2 miNW (310°)9.2 mphPartly Cloudy
5:50 PM57.2 °F41.0 °F55 %29.77 in6.2 miWNW (300°)9.2 mphPartly Cloudy
6:20 PM57.2 °F39.2 °F51 %29.80 in6.2 miNW (310°)11.5 mphPartly Cloudy
6:50 PM55.4 °F39.2 °F54 %29.80 in6.2 miNW (310°)8.1 mphPartly Cloudy
7:20 PM53.6 °F39.2 °F58 %29.83 in6.2 miWNW (300°)6.9 mphPartly Cloudy
7:50 PM53.6 °F39.2 °F58 %29.83 inWNW (290°)6.9 mphClear
8:20 PM51.8 °F39.2 °F62 %29.86 inWest (280°)3.5 mphClear
8:50 PM50.0 °F39.2 °F66 %29.86 inWest (280°)3.5 mphClear
9:20 PM50.0 °F39.2 °F66 %29.89 inVariable2.3 mphClear
9:50 PM50.0 °F39.2 °F66 %29.89 inWest (270°)3.5 mphClear
10:20 PM46.4 °F41.0 °F81 %29.89 inSW (230°)3.5 mphClear
Hourly data recorded from EGHI, located miles away from Calshot, England







STORIES FROM OUR PARTNERS